Wind_Speed
23 22 22 22 22 22 22 22 22 22 23 24 24 24 24 24 23 23 22 22 21 21 20 19 19 18 17 18 17 17 16 15 13 11 10 8 8 7 5 5 5 6 8 9 9 8 7 8 8 8 9 8 8 8 8 7 4 5 8 7 7 10 14 18 20 20 20 21 19 18 17 16 16 14 13 12 10 10 8 14 27 27 24 24 23 23 23 22
23 23 23 23 22 22 22 21 21 21 21 21 22 22 23 23 23 23 23 22 21 21 20 19 18 17 17 17 16 16 16 14 12 11 9 8 8 7 5 5 5 5 7 8 8 7 7 8 8 8 8 8 9 9 9 9 8 7 8 8 8 9 10 13 16 16 18 19 19 18 17 17 18 15 14 12 11 10 8 18 29 26 25 25 24 24 23 22
24 24 24 24 23 23 23 22 21 21 20 20 20 20 20 21 21 22 22 22 22 21 21 20 18 17 17 16 16 15 15 13 12 11 9 8 8 6 5 5 4 5 6 7 7 7 7 7 7 7 8 9 10 10 10 10 10 9 9 8 8 9 9 9 11 13 14 16 17 17 17 18 18 16 15 13 13 12 13 23 28 26 26 25 25 25 23 22
25 25 25 25 24 24 23 23 23 22 21 20 19 19 19 19 19 19 20 21 21 21 21 20 19 18 17 16 15 15 14 13 12 10 9 9 8 7 6 5 5 4 5 6 7 7 7 7 7 8 8 10 10 10 10 10 11 11 11 11 10 10 9 8 8 10 11 13 15 16 18 18 18 18 17 15 15 15 19 28 29 28 28 27 27 25 24 22
28 27 26 26 26 25 25 24 24 23 22 21 20 19 18 18 17 17 17 18 19 19 20 19 18 18 17 16 15 14 14 13 11 10 9 9 8 7 7 6 5 4 4 5 6 6 6 6 7 8 9 10 10 10 10 11 11 13 13 13 12 10 9 8 8 9 10 12 14 16 17 18 19 19 18 17 17 17 23 31 31 31 31 29 28 26 24 22
30 29 29 28 27 27 26 26 25 24 23 22 21 20 19 18 17 16 16 16 17 17 18 18 18 18 17 16 15 14 14 13 12 10 9 10 9 8 7 6 6 4 4 5 5 6 6 6 7 8 9 9 9 10 11 11 12 13 15 14 12 11 9 8 8 8 9 11 12 15 16 17 18 19 19 19 20 20 26 33 32 31 30 29 28 26 25 23
33 32 31 30 30 29 28 28 27 26 25 24 23 22 21 20 19 17 16 16 15 15 16 16 17 17 17 16 15 15 14 13 13 11 10 10 9 9 8 7 6 5 3 4 5 5 5 6 7 7 8 8 9 10 11 12 13 15 16 15 13 11 10 9 8 8 9 10 12 14 15 17 18 19 19 20 21 20 27 33 31 31 31 29 28 26 25 24
34 33 33 32 31 31 30 30 29 28 27 26 25 24 23 22 20 19 18 16 15 14 14 15 15 15 16 16 15 15 15 14 13 12 11 11 10 9 9 8 7 5 3 3 4 5 5 6 7 7 7 8 9 11 13 13 14 16 16 16 15 12 11 10 8 9 10 11 13 15 14 15 17 19 19 21 23 23 29 33 31 32 32 29 28 25 24 23
35 34 34 33 33 32 31 31 30 29 29 28 27 26 25 24 22 21 19 18 16 15 14 14 14 14 15 15 16 15 15 14 14 13 12 12 11 10 10 8 7 6 3 3 3 4 4 5 6 6 7 8 9 11 12 12 13 16 17 18 18 14 12 9 7 8 11 13 14 16 15 15 16 18 20 21 24 28 33 34 31 32 31 29 27 25 24 22
34 34 34 34 33 33 32 32 31 30 29 29 28 27 26 26 24 23 21 20 18 16 14 14 13 14 14 15 16 15 15 15 15 14 13 12 11 11 10 8 7 5 4 3 3 3 4 5 5 6 6 8 10 10 11 13 15 16 17 18 18 16 12 7 7 8 10 13 14 17 17 15 14 18 22 20 25 33 35 34 32 32 31 29 27 24 24 23
32 32 32 33 33 33 32 32 32 31 30 29 28 28 27 27 26 24 23 22 20 18 16 15 14 13 14 14 15 15 16 16 15 15 14 12 12 10 8 7 7 6 5 4 3 3 3 4 5 5 6 8 10 9 10 14 15 15 15 16 17 16 13 8 8 8 10 10 13 18 17 15 15 18 21 22 30 36 35 35 34 32 30 29 27 25 24 23
30 30 30 30 31 31 31 32 32 31 31 30 29 28 27 27 26 25 24 23 22 20 18 16 15 14 14 14 15 15 16 16 16 16 14 13 12 10 9 9 8 7 7 5 3 3 3 4 4 5 6 8 8 8 10 13 14 14 15 15 14 13 10 8 8 8 9 8 10 16 15 17 20 23 24 29 37 37 36 36 33 31 30 28 27 26 25 24
29 29 28 28 28 28 29 30 31 31 31 30 29 29 28 28 27 26 25 24 23 22 20 18 17 16 16 15 15 15 16 17 17 17 15 13 12 11 11 10 9 9 8 5 4 4 4 4 3 5 6 7 8 9 10 11 12 13 14 13 11 11 9 5 6 6 6 5 11 19 20 21 25 31 32 35 38 36 36 35 33 31 29 28 28 27 25 25
28 27 27 27 27 27 27 28 29 29 30 29 29 29 28 28 27 26 26 25 24 23 22 20 19 18 18 16 15 15 16 17 18 18 16 14 13 13 12 11 10 10 8 6 6 5 4 3 3 4 5 6 8 9 9 9 10 11 12 11 10 11 10 5 4 5 3 3 16 27 27 26 30 34 35 35 35 35 35 34 32 30 29 29 28 27 26 25
27 26 25 25 25 25 26 26 26 27 27 28 28 28 28 28 28 27 26 26 25 25 24 23 21 20 20 18 17 17 17 18 19 18 16 15 15 14 13 11 10 10 8 8 8 6 5 4 3 4 5 6 8 8 7 7 9 10 10 10 11 11 9 5 3 2 3 8 21 32 30 29 32 33 34 33 33 34 33 33 31 30 29 29 28 28 27 25
25 25 23 22 22 23 24 25 25 25 25 25 25 26 27 28 28 27 26 26 26 26 25 25 23 23 22 21 20 19 19 19 19 18 17 16 16 15 13 11 9 9 9 9 9 7 6 5 4 4 5 6 7 7 6 7 8 9 8 9 9 9 8 5 3 2 7 16 25 30 30 31 32 33 34 34 33 33 32 32 30 30 30 28 28 27 25 24
22 25 24 22 20 21 21 22 24 25 24 23 23 24 25 26 26 26 26 26 27 27 27 26 25 24 24 23 22 22 21 20 20 19 18 17 17 15 13 11 9 9 10 10 9 8 7 5 4 5 6 6 6 5 3 5 5 6 6 6 7 6 7 5 3 5 11 21 26 26 28 31 32 34 35 35 33 32 32 32 31 30 29 28 27 25 24 23
18 21 24 23 20 19 19 20 21 23 23 23 22 23 24 24 24 25 25 26 27 27 28 28 26 26 26 25 25 24 23 22 22 21 19 18 18 16 14 13 10 9 10 11 10 8 7 6 6 7 6 5 4 4 3 3 3 4 5 4 4 4 5 4 4 7 11 19 23 23 25 28 32 34 34 34 33 32 32 32 32 31 29 28 26 24 24 23
17 17 21 24 22 19 18 19 19 21 21 22 22 23 23 23 23 23 24 26 27 28 29 29 28 29 27 26 26 26 25 24 24 23 21 20 19 17 15 13 11 10 10 11 10 9 8 8 9 8 6 5 4 5 3 3 4 5 4 3 1 2 3 3 3 6 9 14 18 18 20 24 28 31 32 32 32 31 30 31 31 30 29 27 25 24 23 22
17 17 17 21 23 21 19 19 18 19 19 20 21 23 23 23 23 23 24 25 27 29 29 29 30 29 28 27 27 27 27 26 26 25 24 22 21 19 16 14 12 12 12 13 11 9 7 9 10 8 7 6 5 5 4 5 6 6 4 3 2 0 1 1 3 4 6 11 16 16 17 20 23 27 30 31 31 30 29 28 28 28 27 25 24 24 23 22
16 16 17 18 21 23 22 20 18 18 18 19 21 23 23 23 23 23 23 25 27 28 29 29 29 29 28 28 28 28 28 28 28 27 26 25 23 20 17 14 13 14 16 15 13 10 9 11 12 8 7 6 6 6 5 7 8 7 6 4 2 0 1 2 3 4 5 8 13 16 16 18 21 24 27 29 29 30 29 28 26 26 25 24 24 24 24 23
16 15 15 16 18 21 23 22 19 17 18 19 21 22 22 22 22 23 24 26 26 27 28 28 28 28 28 28 28 28 29 29 29 29 28 26 24 22 18 16 15 16 18 16 13 13 13 15 13 9 8 8 8 8 7 9 11 9 7 5 3 1 1 3 3 5 6 7 11 15 14 16 19 21 24 27 27 27 27 28 27 26 25 24 24 24 23 22
16 15 14 14 16 18 21 22 20 18 18 19 21 22 21 21 22 23 25 26 26 27 26 26 27 27 27 28 28 28 29 29 30 29 28 27 25 22 19 17 17 17 17 15 15 16 16 16 13 11 11 11 10 10 10 12 13 11 9 7 5 3 2 4 4 6 6 6 9 13 13 14 15 17 20 24 25 25 25 27 28 27 25 24 24 24 22 20
16 14 13 13 14 15 18 21 20 18 18 19 21 22 21 21 21 22 24 25 25 26 26 26 26 26 26 26 26 27 28 28 29 29 29 28 26 23 21 20 20 18 17 16 17 19 19 16 13 13 13 12 12 12 12 14 15 13 12 10 7 5 5 5 6 7 6 6 7 9 10 12 15 16 18 21 23 24 25 27 27 26 25 25 23 22 21 20
15 14 13 12 12 13 15 18 19 18 18 19 21 22 21 21 20 21 22 23 24 25 26 26 26 26 26 25 25 25 26 27 28 29 29 28 27 24 23 23 22 19 18 19 20 20 21 17 13 14 13 12 13 14 15 15 14 14 13 12 11 8 8 8 9 8 8 7 7 8 7 8 12 15 18 19 20 21 22 23 24 25 25 24 21 19 20 20
14 13 12 12 11 11 13 16 17 17 18 19 20 21 21 21 20 20 20 21 23 25 26 27 28 28 26 24 24 23 24 26 27 28 29 30 29 28 26 24 24 22 20 21 21 20 22 18 13 14 13 13 15 15 17 16 14 14 13 13 13 11 10 10 9 9 9 8 8 8 6 6 9 12 15 17 18 19 19 19 21 22 23 22 20 18 19 19
14 12 12 11 10 10 11 14 16 17 18 19 20 20 21 20 20 20 20 21 23 24 26 28 28 27 25 24 23 24 26 26 26 28 29 31 31 29 28 27 26 24 23 23 21 21 22 19 16 16 16 15 16 17 18 16 15 15 14 13 14 13 12 10 9 9 10 9 8 6 5 6 8 10 12 15 17 18 18 18 19 20 20 20 19 18 18 18
13 12 11 10 9 9 9 12 15 17 18 19 19 19 20 19 19 20 20 22 23 23 26 27 28 26 25 25 26 27 25 24 26 28 29 31 31 30 29 28 27 26 26 26 23 21 24 23 21 20 17 17 19 21 20 18 17 17 15 14 16 15 12 10 9 10 10 9 8 7 7 8 8 9 12 14 17 18 18 19 19 19 20 20 18 17 18 18
13 11 10 9 8 7 7 8 12 16 18 19 19 19 19 19 20 20 21 23 23 23 24 26 27 27 26 26 28 27 25 25 27 28 29 31 30 30 31 30 29 30 29 28 27 26 28 27 24 22 20 20 22 22 20 19 18 16 14 16 17 15 12 10 9 9 10 10 10 9 8 10 8 8 11 14 16 18 19 21 21 20 21 21 19 19 20 20
13 11 10 9 7 6 5 5 7 12 16 18 19 19 19 20 20 20 22 24 23 23 24 25 27 27 26 27 27 27 26 27 27 27 28 30 29 30 30 30 30 31 30 30 31 31 30 28 26 24 22 22 22 19 18 18 15 13 15 17 16 14 12 10 10 10 10 10 10 10 9 10 9 8 9 12 15 16 18 20 21 22 22 22 22 22 22 22
13 11 9 8 6 5 5 5 5 7 11 16 18 20 20 20 20 22 24 24 22 22 24 25 26 26 26 26 26 27 27 27 26 26 28 29 29 31 31 31 32 33 32 31 30 30 29 27 26 24 22 21 20 17 17 16 13 13 16 17 15 14 13 11 11 10 9 8 10 10 9 9 10 9 8 9 11 14 16 18 20 22 23 23 24 24 24 24
12 11 9 7 5 5 5 4 3 4 8 13 16 19 20 21 22 23 23 22 22 22 23 24 24 25 25 26 27 27 26 26 25 26 27 28 29 29 30 31 32 32 31 29 28 30 29 27 25 24 22 21 19 16 16 14 14 15 17 17 16 15 13 11 10 11 9 9 11 11 9 9 9 9 8 9 11 12 15 18 21 23 24 25 25 25 25 24
12 11 9 7 5 5 5 4 4 4 6 10 14 17 19 21 22 22 21 21 21 20 20 20 21 22 24 24 26 27 27 27 26 26 27 27 28 28 29 30 31 30 29 28 29 29 28 26 24 23 23 20 17 15 15 15 16 18 19 20 20 18 15 10 8 8 8 10 13 12 11 10 9 8 9 10 13 15 16 18 21 24 25 26 26 25 24 23
12 11 9 7 5 5 6 6 6 6 7 9 13 16 18 19 19 19 19 19 18 17 17 18 20 21 23 24 25 26 27 27 26 26 26 26 27 29 30 31 31 31 31 30 30 29 28 25 23 23 23 21 18 15 16 18 19 20 21 21 20 21 20 13 8 9 10 12 14 13 12 11 9 8 9 10 13 15 18 19 21 22 23 24 25 23 22 21
12 10 9 7 6 6 6 6 8 9 9 10 13 15 16 17 17 17 17 17 16 16 17 19 20 22 23 24 25 25 25 25 25 26 26 26 27 28 29 30 30 31 31 30 29 30 30 27 24 23 24 21 18 17 20 20 19 20 20 18 18 21 20 14 11 14 15 15 16 14 12 11 10 10 10 10 11 13 15 17 18 18 19 19 19 18 18 17
12 10 9 7 6 6 6 6 9 11 11 12 14 14 14 15 15 15 16 16 17 18 18 19 20 22 23 24 24 24 24 24 25 26 26 26 26 26 27 28 29 30 30 29 29 29 28 26 23 22 22 21 21 22 23 21 19 19 19 19 18 18 20 17 13 14 14 14 16 16 13 11 11 11 10 11 11 12 13 14 16 16 15 15 14 14 14 13
13 10 8 7 6 6 6 7 10 12 13 15 15 13 13 14 14 14 15 16 17 18 19 19 20 21 22 22 22 22 22 23 23 25 26 25 24 25 26 27 29 29 29 29 28 27 27 26 24 23 23 24 25 24 23 23 22 20 18 19 17 15 18 18 15 15 15 12 13 16 15 14 13 11 11 11 12 14 14 13 14 14 14 13 13 13 12 12
13 10 8 7 6 6 6 7 10 12 14 16 15 13 14 15 15 15 16 17 18 19 19 19 19 20 20 20 20 20 20 21 21 22 23 23 24 24 24 25 26 27 27 29 29 29 30 29 26 25 26 27 27 25 24 24 24 21 18 18 16 14 18 20 18 18 18 13 10 13 13 13 14 12 10 11 14 16 16 14 14 15 14 13 13 13 12 11
12 11 8 6 5 5 6 7 10 12 15 16 15 14 14 15 16 16 17 18 18 19 19 19 18 19 19 19 18 18 18 19 19 19 20 21 21 22 23 24 24 24 25 28 30 30 30 28 25 26 28 28 27 27 26 24 24 23 21 19 16 15 18 21 22 22 20 16 11 10 9 8 11 14 14 15 15 16 17 17 16 16 16 15 13 12 12 12
11 11 8 6 5 4 5 7 10 12 15 16 15 15 16 16 17 17 18 19 19 19 19 18 19 19 18 17 16 16 16 17 18 19 19 19 19 19 22 23 23 24 25 27 28 29 30 29 27 28 31 29 26 27 26 24 23 24 23 21 19 17 17 19 23 23 19 15 13 13 11 7 10 13 15 16 14 14 15 17 17 17 16 16 15 14 14 14
9 9 8 6 5 4 4 6 9 12 15 16 16 17 17 17 17 18 18 19 19 19 19 19 19 19 18 17 16 16 15 16 17 18 17 17 17 18 21 22 22 24 27 27 28 30 32 32 29 29 29 26 25 28 28 27 25 25 25 23 22 21 17 17 21 21 17 14 15 17 14 10 12 12 12 14 12 10 10 13 18 19 16 17 17 16 16 16
9 8 8 7 5 5 5 6 9 12 15 16 16 17 18 17 17 18 19 19 19 19 20 20 20 19 18 17 16 15 15 16 16 16 15 15 17 20 22 23 24 26 28 27 27 29 30 30 30 29 29 28 28 31 31 30 28 27 28 25 23 24 20 17 19 20 19 16 15 16 16 15 15 13 12 13 11 9 8 10 15 18 18 18 18 18 18 17
9 8 7 7 5 5 6 6 8 11 14 16 16 16 18 17 17 19 19 19 20 21 21 21 21 20 19 18 16 15 15 14 14 14 16 17 20 23 24 25 27 28 29 28 28 29 30 32 32 31 30 30 31 30 28 29 29 28 28 26 24 24 22 20 21 21 21 19 15 14 14 15 16 14 13 13 12 11 9 8 12 15 18 19 18 18 18 16
9 9 8 7 6 6 6 7 9 11 13 15 15 16 17 17 17 19 20 20 20 21 22 22 22 21 20 18 17 15 13 13 13 14 17 18 21 24 25 24 26 28 28 27 28 29 31 33 33 32 29 28 29 29 28 29 29 27 26 25 24 23 22 23 24 23 22 22 22 20 16 13 15 17 14 13 13 12 10 12 15 17 19 19 18 17 16 15
10 10 9 8 7 6 6 7 9 10 12 14 15 17 17 17 18 19 21 20 20 21 22 23 22 22 21 19 17 15 13 13 12 13 16 18 20 23 23 22 24 25 25 25 26 27 30 32 33 32 31 27 25 27 29 29 28 26 24 22 23 23 22 25 27 25 22 22 26 27 21 16 18 18 14 14 15 13 13 18 20 20 20 19 17 16 15 13
11 10 10 10 10 8 6 7 8 10 12 13 15 17 18 18 19 20 21 21 21 22 23 23 23 23 23 21 19 17 15 13 12 13 16 18 19 21 22 22 22 23 24 25 27 28 30 32 32 33 32 27 23 24 27 27 26 25 22 20 22 23 23 26 29 28 25 23 24 23 19 19 22 20 16 17 17 14 16 21 22 20 20 18 15 14 13 12
11 11 11 11 12 11 9 8 8 9 11 13 15 16 18 19 20 20 21 22 22 22 23 23 24 25 25 23 21 19 17 15 13 13 15 17 18 20 21 22 22 22 23 24 26 28 29 31 32 33 33 30 28 27 27 27 26 25 22 22 23 24 24 27 28 28 29 27 27 25 19 17 20 20 18 19 20 17 19 24 22 19 18 16 14 13 13 12
12 12 12 12 13 13 12 10 9 10 11 13 15 16 17 19 20 20 21 22 23 23 24 25 25 25 25 25 23 22 20 18 16 15 16 18 19 19 20 22 21 21 22 23 24 27 28 29 32 33 32 31 30 29 28 28 27 27 26 25 25 25 26 27 26 25 27 26 25 27 25 18 17 19 19 20 21 20 22 26 24 20 18 17 15 14 13 12
12 13 12 12 13 14 14 13 12 12 12 13 15 17 18 19 20 20 21 23 24 25 25 26 26 25 26 26 25 24 23 22 20 18 18 19 20 20 20 21 21 21 21 21 23 25 26 28 31 33 32 30 29 28 29 29 28 28 27 26 25 25 25 25 23 23 24 24 25 28 28 23 20 20 19 21 24 22 22 26 25 22 21 18 16 14 12 11
13 13 13 13 14 14 15 16 15 14 13 13 15 17 18 19 20 20 21 23 25 26 26 26 27 26 26 26 26 26 25 24 22 20 20 20 21 22 21 20 20 21 21 21 21 23 25 26 28 31 32 31 30 30 30 30 30 30 28 26 26 25 24 24 21 21 22 22 25 29 29 26 23 21 21 24 27 24 23 26 25 22 22 21 17 15 13 11
14 14 14 14 14 14 15 17 17 17 16 15 15 17 18 19 20 20 21 23 25 26 26 27 29 29 28 28 27 26 26 25 23 22 22 21 21 23 22 20 20 20 21 22 22 21 22 23 25 29 31 32 31 31 30 30 30 31 30 29 27 24 23 22 21 21 20 18 19 25 30 31 26 23 24 27 29 28 26 27 26 24 24 22 19 16 14 13
15 15 15 15 15 15 16 17 18 19 19 18 17 17 18 20 21 21 22 22 24 26 27 28 30 31 31 30 28 27 27 26 25 24 24 23 23 24 23 22 21 21 20 21 22 22 20 19 21 25 29 32 33 31 30 31 33 33 32 29 26 24 24 23 23 22 20 17 17 21 29 32 29 26 27 28 32 33 28 24 24 25 25 22 20 19 17 16
Wind_Direction
270 269 268 268 269 270 269 269 268 266 265 264 263 263 262 262 261 261 261 261 260 261 262 263 263 265 266 267 268 269 271 274 277 278 280 279 275 271 273 285 304 319 335 345 356 6 12 14 10 1 354 356 2 11 18 22 15 324 321 316 284 267 258 248 239 237 239 240 236 228 222 227 229 228 228 229 225 215 225 202 186 183 181 179 181 180 179 177
269 269 268 267 267 268 269 269 269 268 267 266 265 263 262 261 260 261 260 260 259 259 259 260 261 261 262 264 265 266 267 269 269 269 268 268 266 262 263 272 288 311 332 343 355 5 14 14 8 359 350 355 6 10 13 15 12 351 328 314 295 285 273 252 240 237 239 238 236 231 224 226 229 228 227 229 226 215 208 189 181 179 179 179 182 181 179 178
267 266 267 267 266 266 266 267 267 268 268 268 267 266 264 262 261 259 259 259 258 258 257 257 257 258 259 260 262 262 263 262 261 259 256 256 256 252 253 257 270 302 327 340 353 5 13 12 4 355 350 355 2 6 8 10 5 357 345 329 314 305 293 267 246 241 242 238 235 232 227 227 228 228 226 228 224 213 190 179 178 177 177 180 182 182 180 178
266 265 265 265 265 264 264 264 265 265 266 267 267 267 267 266 263 260 259 258 257 256 255 254 254 254 255 256 257 257 256 254 253 250 247 246 245 244 244 247 257 287 319 335 349 4 10 7 360 354 354 355 359 6 7 5 1 356 351 340 327 314 299 281 260 249 243 238 234 231 228 226 225 225 223 222 220 211 189 179 178 177 177 181 182 181 180 177
266 265 264 263 263 263 262 262 262 262 263 264 265 266 266 267 265 262 260 258 256 254 253 253 251 250 250 251 252 251 249 246 244 240 239 241 238 236 236 237 246 271 308 330 346 2 6 1 357 357 358 359 2 7 8 4 359 355 350 340 332 323 303 280 268 252 239 237 233 227 226 223 221 222 219 216 213 206 192 183 180 178 178 180 180 179 178 176
266 265 264 262 262 261 261 261 260 260 260 261 262 263 263 264 265 264 261 259 256 254 252 251 248 247 246 246 246 245 242 238 235 232 231 234 231 228 227 227 238 259 294 325 345 357 359 356 356 360 3 4 4 6 6 5 0 357 349 340 333 327 316 288 272 257 240 235 227 223 223 219 218 219 216 214 210 202 192 184 179 177 178 178 178 178 176 174
267 266 264 263 261 260 260 260 259 259 259 259 259 259 260 260 261 262 261 259 257 254 251 249 246 244 242 242 241 239 236 232 229 225 225 227 223 220 220 220 231 247 280 320 340 351 353 352 353 359 3 1 359 360 359 1 2 356 348 342 334 322 316 301 275 259 243 227 221 221 219 215 214 214 213 212 207 202 191 181 177 177 178 178 176 178 177 174
268 267 265 264 262 260 259 259 258 258 258 258 257 257 257 257 257 258 258 257 257 254 251 249 245 242 239 238 237 234 232 229 225 221 220 223 219 213 215 216 223 237 265 309 328 345 349 346 351 355 357 354 352 350 350 354 354 349 344 341 337 323 313 303 274 258 242 218 212 210 211 209 204 205 211 211 203 195 185 177 176 178 176 176 175 176 177 174
268 267 265 264 262 261 259 258 258 257 257 257 256 255 255 255 254 254 254 254 253 252 250 249 245 240 237 235 233 231 229 226 223 219 218 222 218 213 214 214 219 232 251 284 317 342 340 339 348 350 349 348 346 347 349 348 343 342 341 338 339 335 320 296 267 262 242 225 210 194 195 201 198 199 204 208 198 183 175 172 178 178 174 174 174 175 177 173
267 266 265 263 262 260 259 258 257 256 255 255 254 254 253 253 252 251 251 251 250 249 246 245 244 240 236 233 231 229 226 224 222 218 216 218 218 216 214 211 216 228 246 266 303 328 322 331 345 344 343 343 345 350 350 343 339 342 340 336 340 341 329 291 268 270 245 235 214 189 185 190 197 197 191 193 184 170 167 172 178 176 173 173 171 173 176 175
267 266 264 263 261 259 258 256 255 254 253 252 252 251 251 251 250 249 249 249 248 246 243 241 240 238 236 232 230 227 223 223 222 219 215 215 217 216 209 203 209 220 235 248 269 289 303 324 338 336 337 341 344 349 346 341 341 342 339 337 339 339 328 290 274 271 252 240 207 188 178 173 185 190 180 173 168 163 167 173 176 175 172 171 170 173 177 178
267 265 264 262 260 258 256 255 254 253 251 250 249 249 249 249 248 247 247 247 246 244 241 238 236 235 234 231 229 226 222 222 223 220 216 214 215 210 200 198 203 215 227 233 242 260 284 309 325 326 332 339 339 339 340 342 343 339 335 334 338 343 333 289 276 269 255 243 196 183 168 164 175 176 169 164 164 165 170 171 173 173 171 170 171 173 177 180
268 266 263 261 259 257 255 254 252 251 249 248 247 246 246 247 246 245 244 244 244 243 240 237 233 232 232 230 228 226 223 223 225 223 218 216 213 206 203 201 201 212 223 225 232 243 263 290 313 318 327 331 326 330 338 344 343 338 337 336 341 352 347 301 279 270 256 243 192 175 159 158 164 162 162 165 166 168 169 169 171 172 170 173 174 174 179 182
265 265 264 262 259 257 255 253 251 249 248 246 245 244 243 244 243 242 242 241 241 241 239 236 232 230 230 229 227 225 224 224 226 225 220 217 213 209 209 207 204 210 217 222 226 230 243 268 290 304 319 318 317 327 338 345 341 336 337 339 346 352 349 333 298 269 252 217 182 170 158 158 160 159 162 166 168 168 168 170 170 170 172 176 177 178 181 183
262 261 262 261 260 257 254 252 250 248 246 244 243 242 241 241 241 240 239 238 238 238 238 235 231 229 228 226 225 224 222 224 227 225 221 219 215 211 210 211 210 209 212 218 223 226 231 241 258 285 304 307 314 322 333 345 338 334 336 340 350 354 347 344 339 281 178 164 170 166 159 161 163 162 164 167 169 169 169 170 170 171 174 177 182 183 181 182
263 259 258 258 259 258 255 252 249 248 245 243 241 240 239 239 238 237 236 235 235 235 235 234 230 227 226 224 224 225 223 224 226 225 222 220 219 215 214 217 214 208 209 218 224 225 225 227 240 268 282 295 307 309 328 352 339 335 341 349 357 358 354 356 27 84 159 164 166 166 162 162 165 165 165 167 169 170 171 171 171 174 176 179 185 186 183 182
271 260 255 254 255 255 255 253 249 247 245 242 240 239 238 237 236 235 234 233 232 232 233 232 230 227 226 223 223 224 223 224 225 225 222 221 221 218 217 218 212 204 208 220 225 225 223 221 230 250 268 289 299 292 329 0 336 327 336 357 10 9 9 15 67 101 155 168 169 170 168 165 165 166 167 168 170 173 173 172 173 177 179 183 187 187 184 182
286 269 255 250 251 251 252 253 250 247 244 241 238 237 236 236 234 233 231 230 230 230 230 230 229 227 225 222 223 223 223 223 225 226 224 223 223 219 216 213 205 201 208 219 222 220 222 219 224 240 260 284 284 269 298 329 297 302 314 343 20 28 29 31 85 115 148 167 171 172 172 169 166 167 168 169 172 175 176 175 177 179 182 185 186 186 185 184
292 282 263 251 248 249 250 251 251 247 243 239 236 235 235 233 232 230 228 227 227 227 227 228 227 227 225 222 222 223 223 223 225 227 226 226 226 223 219 213 204 200 207 217 218 216 220 220 225 234 245 251 246 249 269 273 260 274 290 298 355 49 46 45 95 127 145 164 174 173 171 171 169 169 170 170 173 178 180 180 179 180 184 186 185 185 187 186
289 284 274 258 249 248 249 250 250 249 243 237 233 233 232 230 228 226 225 224 224 225 225 226 227 227 226 223 221 221 221 221 223 226 226 227 228 226 221 212 204 200 206 213 211 209 216 220 225 232 234 230 223 235 246 237 242 254 260 261 255 114 60 86 118 136 146 160 174 177 173 175 176 175 174 174 176 179 182 183 182 183 185 186 185 185 188 189
293 283 276 265 253 248 249 249 248 249 243 235 230 229 229 227 226 224 222 222 223 223 224 225 226 226 226 223 221 220 220 220 222 224 226 227 228 228 223 214 204 201 208 210 202 195 200 215 224 227 225 221 219 225 224 223 233 243 243 232 222 256 72 142 144 151 147 144 163 176 181 183 185 182 179 178 179 180 183 185 185 186 187 187 186 188 190 191
298 288 278 269 257 249 247 247 247 248 244 234 228 227 226 225 224 222 221 222 222 222 223 223 224 224 225 224 222 221 220 219 220 222 225 227 228 228 223 215 206 206 211 210 200 190 196 215 220 213 212 210 213 217 212 219 228 238 236 216 205 236 128 145 153 155 149 135 147 163 176 184 188 188 184 182 182 184 186 186 186 187 188 188 189 192 192 191
303 294 283 272 261 250 244 244 244 246 243 234 227 225 224 223 222 221 221 221 221 221 221 221 221 222 223 223 221 220 219 219 219 220 223 225 227 226 221 216 211 209 211 209 202 197 203 219 220 210 209 204 207 216 213 222 231 234 227 211 205 210 175 162 163 155 152 151 146 148 157 169 179 184 185 185 187 189 190 188 187 188 188 189 191 193 193 191
308 299 288 276 265 253 244 240 242 244 241 233 226 223 222 221 220 220 221 221 220 220 220 220 220 220 221 222 221 221 220 219 219 219 220 222 223 221 218 215 212 209 206 205 206 205 209 219 217 211 208 199 205 217 221 228 233 229 219 213 209 201 184 171 163 154 148 154 152 147 151 158 166 173 179 185 187 188 188 188 189 189 190 192 193 191 189 190
312 304 295 284 272 260 247 240 240 241 238 232 227 223 221 220 220 220 221 221 220 219 219 219 220 219 218 218 219 220 220 219 219 218 217 218 218 217 215 212 210 207 203 205 208 209 213 217 215 211 207 200 204 215 225 228 226 222 217 211 200 185 173 167 163 154 146 146 150 152 151 156 169 174 175 179 183 187 191 191 191 191 192 195 195 192 189 189
314 306 301 293 281 266 251 242 241 239 235 231 227 223 221 221 220 220 220 221 220 219 219 218 219 219 217 216 217 217 218 218 218 218 216 215 214 212 211 209 208 205 202 205 208 210 215 217 215 213 208 203 202 211 224 223 217 218 217 208 197 184 174 170 165 155 148 147 152 158 153 159 182 184 178 177 181 189 194 197 197 196 195 195 195 194 194 190
316 307 303 300 290 274 256 246 240 237 233 230 227 224 222 221 220 220 219 220 220 219 218 219 220 220 216 213 214 215 216 216 216 217 216 216 214 211 209 207 206 204 202 204 206 210 217 217 213 213 208 203 200 208 220 218 214 218 217 208 199 187 175 169 166 160 153 151 154 160 157 163 183 194 189 186 189 192 192 195 200 200 198 198 195 193 195 192
317 310 306 304 299 288 269 252 243 237 233 229 227 225 223 222 220 219 219 220 220 218 217 219 219 218 214 210 212 214 214 212 213 215 215 216 214 210 209 207 204 204 203 202 202 208 217 217 212 212 207 202 205 210 215 215 217 220 217 211 203 190 177 171 170 164 154 145 140 141 148 154 171 193 198 199 198 195 193 194 197 198 198 196 192 189 192 189
319 312 307 306 308 306 291 266 248 239 235 230 227 226 224 222 221 220 220 221 221 218 217 217 218 216 212 209 212 213 211 210 211 212 212 216 215 212 211 207 204 206 204 201 200 204 214 215 211 210 206 205 210 213 213 215 220 220 214 213 207 190 176 173 173 163 151 141 135 136 142 144 155 186 200 204 203 196 195 195 191 192 195 190 185 183 185 182
321 314 306 306 315 317 306 289 260 240 233 230 226 225 223 222 220 218 220 222 221 219 216 216 216 215 211 210 212 211 210 212 212 210 211 213 213 213 212 208 208 208 206 203 203 209 216 214 211 210 208 210 213 212 212 217 224 217 211 213 205 187 177 180 176 161 148 143 141 141 140 138 145 169 189 199 205 200 196 194 186 184 185 181 176 175 175 173
322 317 306 304 316 313 299 297 281 245 228 224 221 221 220 219 218 217 218 220 219 218 216 215 214 212 210 210 211 211 211 214 213 211 213 212 210 210 209 208 209 210 209 205 205 214 219 216 214 213 210 212 213 210 211 219 225 213 209 212 200 182 179 179 172 160 151 150 148 144 141 137 139 150 161 174 190 196 193 188 181 178 176 173 169 167 166 167
322 319 308 300 306 299 281 273 276 253 225 216 213 214 215 214 214 216 218 217 216 216 215 214 212 211 210 209 210 210 211 213 213 213 215 214 211 211 209 209 211 211 212 208 206 214 220 218 217 216 215 214 213 211 210 219 224 211 207 208 196 183 181 180 172 165 161 158 151 147 146 142 138 143 145 146 157 171 176 174 171 168 166 165 164 164 164 166
322 320 312 300 289 283 269 237 226 236 222 210 205 206 208 209 211 214 215 214 214 213 212 211 210 210 209 210 211 210 210 211 210 211 214 214 211 209 209 211 212 211 211 209 207 213 220 220 218 218 219 216 215 211 207 215 220 211 208 206 197 188 183 177 173 173 171 162 156 155 154 145 138 141 141 137 140 147 153 156 158 158 159 162 163 165 167 168
325 320 317 304 280 272 267 234 212 213 211 202 199 199 201 204 207 209 209 210 210 208 206 205 205 206 207 208 211 212 213 213 209 209 213 214 213 209 208 209 209 209 209 207 207 209 213 218 217 215 216 216 213 209 208 216 219 216 213 209 204 198 186 176 187 193 178 164 161 163 161 154 152 152 147 141 138 141 146 150 155 159 163 166 167 168 170 171
330 320 319 309 280 263 261 238 211 206 205 199 194 194 195 197 199 200 201 201 200 198 198 198 199 202 205 208 210 211 214 214 210 209 210 213 214 212 212 211 209 209 208 207 207 208 210 215 213 208 212 214 211 210 213 219 226 227 221 212 211 209 197 187 192 187 173 165 165 164 161 158 158 157 151 150 150 150 154 156 159 164 167 169 170 171 174 175
335 323 318 310 286 259 251 236 215 206 204 201 194 189 190 190 190 192 192 191 191 192 194 196 197 201 204 208 211 212 214 213 211 210 210 211 213 213 214 214 211 210 209 207 209 209 210 216 213 206 210 212 210 214 214 213 219 225 221 216 215 213 205 195 185 178 175 174 169 161 157 156 155 160 162 162 165 164 165 167 166 168 172 174 177 180 178 177
338 327 317 311 293 264 243 230 218 209 206 206 198 187 185 185 185 188 188 188 190 192 194 197 198 202 206 209 211 213 214 215 213 211 211 211 212 212 213 214 213 211 209 207 207 206 207 213 211 206 208 210 211 215 215 212 215 215 212 214 216 214 207 196 181 174 171 169 168 162 163 163 158 161 168 172 178 174 170 176 176 176 183 186 187 187 183 180
339 333 320 313 301 274 244 226 220 213 211 209 202 192 188 187 187 190 190 190 191 194 196 198 200 202 206 209 211 212 212 215 216 215 215 214 212 211 212 214 215 213 211 207 205 206 207 210 209 207 209 211 210 213 216 217 217 212 209 211 209 210 207 195 184 178 166 152 158 164 161 165 166 165 170 179 189 185 174 177 184 184 189 196 195 191 188 189
336 338 326 313 304 286 256 230 220 216 215 212 205 199 197 194 194 194 194 194 195 197 198 199 200 202 205 208 209 210 210 211 215 218 221 220 216 211 210 212 212 212 214 211 208 208 208 208 207 208 211 212 211 212 215 220 218 214 217 219 213 213 211 198 186 183 172 150 149 162 148 158 181 179 179 181 193 199 183 175 186 192 192 195 196 193 192 194
330 338 333 315 301 287 264 239 224 219 219 216 210 206 205 203 201 199 199 198 197 199 199 199 201 203 205 206 206 208 208 209 213 217 220 220 217 212 212 211 208 208 212 212 211 210 208 207 205 207 210 210 212 213 213 219 222 219 221 223 219 217 217 208 196 191 183 162 161 166 148 159 192 186 181 175 184 209 196 178 186 193 194 193 190 192 194 193
318 334 338 324 301 273 257 241 228 223 222 219 214 213 211 210 207 205 205 203 200 201 201 201 202 203 205 204 201 203 205 207 212 215 216 215 211 210 213 211 206 207 210 210 209 208 208 207 206 208 208 207 213 215 211 214 217 217 219 221 224 221 214 211 206 197 187 176 173 167 157 175 189 182 179 166 169 202 202 194 194 186 186 192 189 192 195 192
302 320 332 328 305 270 249 237 231 231 230 225 219 217 218 217 213 211 211 207 203 203 203 202 203 204 206 206 203 201 201 205 208 210 210 208 205 207 210 208 204 207 210 209 209 209 208 207 207 209 207 203 211 215 212 215 216 215 216 215 220 221 211 207 209 199 188 184 179 172 179 187 174 173 188 172 166 190 192 212 209 180 173 186 186 189 194 194
285 293 312 322 311 280 254 234 229 232 236 234 228 224 223 222 218 216 217 212 206 206 205 205 206 206 207 208 206 203 202 204 204 204 204 203 201 205 209 208 205 207 208 206 207 208 207 205 206 210 209 206 213 217 215 219 221 219 220 220 220 220 212 207 211 208 199 190 178 175 192 192 167 169 196 186 178 190 181 201 213 184 172 178 181 187 193 197
279 276 283 297 302 290 266 244 231 228 233 237 237 232 228 227 223 221 222 218 212 209 208 208 209 209 209 210 209 206 204 203 202 202 205 205 206 209 213 212 211 211 211 209 210 209 207 206 205 208 210 210 216 220 218 221 224 223 225 228 228 224 218 214 215 216 208 193 183 180 185 195 178 172 188 192 186 189 175 178 193 186 174 174 179 187 192 196
279 271 268 271 279 284 274 255 241 232 230 232 236 236 233 231 227 225 226 224 219 214 212 211 211 211 211 211 212 211 207 206 205 205 207 209 211 214 217 217 217 217 215 214 215 214 211 209 207 207 208 207 212 221 221 223 227 228 228 232 234 228 222 221 220 220 215 199 191 185 177 184 186 174 176 188 185 180 172 173 181 182 176 176 183 190 195 201
278 271 264 260 262 268 269 261 250 239 232 229 230 233 234 233 230 229 228 226 224 220 216 214 213 212 212 212 214 215 213 211 208 207 211 212 212 215 218 219 220 219 217 215 216 216 214 211 208 209 210 204 205 218 222 222 225 229 230 234 236 230 226 227 224 219 217 207 195 189 182 185 185 173 173 185 183 177 175 175 178 180 179 180 184 188 192 197
279 271 262 256 255 255 256 257 253 243 235 230 229 230 231 231 231 230 228 227 227 224 220 217 215 214 214 214 214 216 217 215 213 212 214 214 214 215 218 221 222 221 220 219 219 218 217 212 208 210 211 207 206 212 218 219 221 223 224 226 229 228 228 231 228 221 218 210 193 183 183 191 187 175 176 186 184 182 183 181 180 181 182 180 177 180 182 181
279 272 264 256 252 249 247 248 249 246 238 232 230 230 228 229 229 228 227 227 228 226 222 220 219 217 217 216 215 216 217 216 215 215 215 216 218 217 218 221 223 222 221 221 222 221 219 214 210 211 212 213 214 217 218 217 218 220 220 221 224 226 227 231 233 231 229 223 204 187 182 189 190 181 183 186 184 188 191 187 181 176 177 177 173 173 177 178
279 273 266 258 251 248 245 244 244 246 242 235 233 232 229 229 228 226 224 225 226 226 224 222 221 220 219 218 216 216 217 217 215 214 216 219 221 220 218 218 221 222 221 220 222 223 219 215 213 212 213 214 216 219 220 218 218 219 220 221 224 227 229 231 235 241 243 240 228 208 191 186 189 190 190 186 184 190 196 193 188 181 176 175 175 178 183 187
277 273 269 261 253 247 244 243 242 242 241 237 235 234 232 231 230 226 224 224 225 226 225 222 222 222 221 219 218 216 218 221 217 213 217 221 224 225 222 217 218 221 221 221 222 224 221 217 215 215 214 213 216 219 220 219 218 218 218 221 225 229 233 235 236 242 248 246 238 222 201 189 191 196 194 187 185 190 195 195 195 191 183 177 177 185 192 194
276 272 268 264 258 250 244 241 240 240 240 238 236 235 234 233 232 229 224 223 225 226 225 222 221 222 222 222 220 218 218 221 218 214 217 221 225 228 226 219 217 219 222 224 223 225 226 222 220 219 215 212 215 219 220 220 221 221 220 222 226 230 235 239 239 241 247 251 248 231 208 192 188 195 198 192 187 190 196 197 196 197 194 184 177 186 198 200
276 272 268 264 260 255 248 242 238 238 239 238 237 236 235 234 234 232 227 224 224 225 225 223 222 222 224 224 223 220 219 219 218 216 218 221 225 229 227 222 217 216 220 225 224 225 228 226 225 224 218 213 213 216 219 220 221 223 224 223 226 230 235 240 242 245 248 250 250 241 219 197 184 192 205 203 193 192 194 192 193 204 212 205 191 189 197 206
Height
5870 5870 5870 5871 5871 5871 5871 5871 5872 5872 5873 5873 5874 5874 5875 5876 5877 5878 5878 5879 5880 5880 5881 5882 5882 5883 5884 5884 5884 5884 5884 5885 5885 5886 5886 5886 5886 5886 5886 5886 5885 5885 5885 5884 5883 5882 5881 5880 5880 5879 5879 5878 5877 5876 5876 5875 5874 5874 5873 5873 5874 5874 5873 5873 5874 5875 5875 5875 5876 5878 5879 5880 5881 5881 5881 5881 5882 5884 5884 5884 5886 5888 5890 5891 5893 5894 5896 5897
5867 5868 5868 5868 5868 5868 5869 5869 5869 5870 5870 5871 5871 5872 5872 5873 5874 5875 5876 5876 5877 5878 5879 5879 5880 5881 5881 5882 5882 5882 5883 5883 5884 5884 5885 5885 5885 5885 5885 5885 5885 5884 5884 5884 5883 5882 5881 5880 5880 5879 5878 5878 5877 5876 5875 5874 5874 5873 5873 5873 5873 5872 5871 5870 5871 5873 5873 5873 5875 5877 5878 5878 5879 5879 5880 5880 5881 5882 5883 5883 5885 5887 5889 5891 5893 5895 5896 5897
5865 5865 5865 5865 5866 5866 5866 5866 5867 5867 5868 5868 5869 5869 5870 5870 5871 5872 5873 5874 5875 5875 5876 5877 5878 5879 5879 5880 5880 5880 5881 5882 5883 5883 5883 5884 5884 5884 5884 5884 5884 5884 5884 5883 5883 5882 5881 5880 5880 5879 5878 5877 5876 5875 5874 5873 5873 5872 5872 5872 5872 5871 5870 5869 5870 5871 5871 5872 5873 5875 5876 5876 5877 5878 5879 5880 5881 5882 5882 5883 5886 5887 5889 5891 5893 5895 5896 5897
5862 5862 5862 5863 5863 5863 5864 5864 5864 5865 5865 5866 5866 5867 5867 5868 5869 5870 5870 5871 5872 5873 5874 5875 5876 5877 5877 5878 5878 5879 5879 5880 5881 5881 5882 5882 5883 5883 5883 5883 5883 5884 5883 5883 5882 5881 5880 5880 5880 5879 5878 5877 5876 5875 5874 5873 5872 5872 5871 5871 5870 5870 5869 5869 5869 5870 5870 5870 5872 5873 5874 5874 5875 5876 5877 5879 5880 5881 5882 5883 5885 5886 5887 5890 5892 5894 5896 5897
5859 5859 5860 5860 5860 5860 5861 5861 5862 5862 5863 5864 5864 5865 5865 5866 5866 5867 5868 5869 5869 5870 5871 5872 5873 5874 5875 5876 5876 5877 5878 5879 5879 5880 5881 5881 5882 5882 5882 5882 5883 5883 5883 5882 5882 5881 5880 5880 5879 5879 5878 5877 5876 5875 5874 5873 5872 5871 5871 5870 5869 5869 5868 5868 5868 5868 5868 5869 5870 5871 5872 5872 5873 5874 5875 5877 5878 5880 5881 5882 5883 5884 5886 5889 5891 5894 5896 5898
5855 5856 5856 5857 5857 5857 5858 5859 5859 5860 5860 5861 5862 5863 5863 5864 5864 5865 5866 5866 5867 5868 5869 5870 5871 5872 5873 5874 5875 5875 5876 5877 5878 5879 5879 5880 5880 5881 5881 5882 5882 5882 5882 5882 5881 5880 5880 5879 5879 5878 5878 5877 5876 5874 5874 5873 5872 5871 5870 5869 5869 5868 5868 5867 5867 5867 5867 5867 5868 5869 5870 5871 5871 5872 5873 5875 5876 5878 5879 5881 5883 5885 5887 5889 5892 5894 5896 5897
5851 5852 5852 5853 5854 5854 5855 5855 5856 5857 5858 5859 5860 5860 5861 5862 5862 5863 5864 5865 5865 5866 5867 5868 5869 5870 5871 5872 5873 5873 5874 5875 5876 5877 5878 5878 5879 5880 5880 5881 5881 5882 5882 5881 5881 5880 5880 5879 5879 5878 5877 5877 5876 5874 5873 5873 5872 5871 5870 5869 5868 5868 5867 5867 5866 5866 5866 5866 5866 5867 5867 5868 5869 5870 5871 5872 5874 5876 5878 5881 5884 5886 5887 5890 5892 5894 5896 5897
5847 5847 5848 5849 5850 5850 5851 5852 5853 5854 5855 5856 5857 5858 5858 5859 5860 5861 5862 5863 5864 5864 5865 5866 5867 5868 5869 5870 5871 5872 5873 5874 5875 5876 5876 5877 5878 5878 5879 5880 5880 5881 5881 5881 5880 5880 5879 5879 5878 5878 5877 5876 5875 5874 5873 5872 5872 5870 5869 5869 5868 5867 5867 5866 5865 5865 5864 5864 5865 5865 5866 5866 5867 5869 5869 5870 5872 5875 5878 5881 5884 5885 5887 5890 5892 5895 5897 5898
5842 5843 5844 5844 5845 5846 5847 5848 5849 5850 5851 5853 5854 5855 5855 5857 5858 5859 5860 5861 5862 5863 5864 5865 5865 5866 5867 5868 5869 5870 5871 5872 5873 5874 5875 5875 5876 5877 5878 5879 5879 5880 5880 5880 5880 5879 5879 5878 5878 5878 5877 5876 5875 5874 5873 5872 5872 5870 5869 5868 5867 5866 5865 5865 5864 5864 5863 5864 5864 5863 5864 5865 5865 5868 5868 5868 5871 5873 5876 5881 5884 5886 5887 5890 5892 5895 5897 5898
5838 5838 5839 5840 5841 5842 5843 5844 5845 5846 5848 5849 5850 5851 5852 5853 5855 5856 5857 5858 5860 5861 5862 5863 5864 5865 5865 5866 5867 5868 5869 5870 5871 5872 5873 5874 5875 5876 5877 5878 5879 5879 5880 5880 5879 5879 5878 5878 5878 5878 5877 5876 5875 5874 5873 5872 5871 5870 5869 5868 5867 5866 5865 5864 5863 5863 5862 5862 5863 5862 5862 5864 5865 5866 5866 5867 5871 5873 5876 5880 5884 5887 5888 5890 5892 5895 5897 5898
5833 5834 5834 5835 5836 5837 5838 5839 5840 5842 5843 5845 5846 5848 5849 5850 5852 5853 5855 5856 5857 5859 5860 5862 5862 5863 5864 5865 5865 5866 5868 5869 5870 5870 5872 5873 5874 5875 5876 5877 5878 5879 5879 5879 5879 5879 5878 5878 5878 5877 5876 5876 5875 5874 5873 5872 5871 5870 5869 5868 5867 5866 5864 5863 5863 5862 5861 5861 5861 5860 5861 5864 5864 5864 5866 5868 5871 5874 5877 5881 5884 5887 5888 5890 5892 5895 5897 5898
5829 5829 5830 5831 5832 5833 5834 5835 5836 5837 5839 5841 5842 5844 5845 5846 5848 5850 5852 5853 5855 5856 5858 5860 5861 5862 5862 5863 5864 5865 5866 5867 5868 5869 5870 5871 5872 5874 5875 5876 5877 5877 5878 5878 5878 5878 5877 5877 5877 5877 5876 5876 5875 5874 5874 5872 5871 5870 5869 5869 5867 5866 5864 5863 5862 5861 5860 5860 5860 5861 5862 5864 5864 5865 5868 5869 5871 5874 5878 5881 5885 5887 5889 5891 5893 5894 5896 5897
5825 5825 5826 5826 5827 5828 5829 5830 5832 5833 5835 5836 5838 5840 5842 5843 5845 5847 5848 5850 5852 5854 5855 5857 5859 5860 5860 5861 5862 5863 5864 5865 5866 5867 5869 5870 5871 5872 5874 5875 5876 5876 5877 5877 5878 5877 5877 5877 5877 5877 5876 5876 5875 5874 5874 5873 5872 5871 5870 5869 5867 5866 5864 5862 5861 5860 5860 5859 5860 5861 5862 5863 5864 5866 5868 5870 5872 5875 5878 5882 5885 5887 5889 5891 5893 5894 5895 5897
5821 5821 5822 5823 5823 5824 5825 5826 5827 5829 5830 5832 5834 5836 5838 5839 5841 5843 5845 5847 5849 5850 5852 5854 5856 5857 5858 5860 5861 5862 5863 5864 5864 5865 5867 5869 5870 5871 5872 5873 5874 5875 5876 5877 5877 5877 5877 5877 5877 5876 5876 5876 5875 5874 5874 5873 5872 5871 5870 5869 5866 5865 5864 5862 5861 5860 5859 5858 5859 5860 5861 5863 5865 5867 5869 5871 5874 5876 5879 5882 5884 5887 5889 5891 5893 5894 5895 5896
5817 5817 5818 5819 5820 5821 5822 5822 5824 5825 5826 5828 5830 5832 5834 5835 5837 5840 5842 5843 5845 5847 5849 5851 5853 5855 5856 5858 5859 5860 5861 5862 5862 5864 5866 5867 5868 5870 5871 5872 5873 5874 5875 5876 5876 5876 5876 5876 5876 5876 5876 5875 5875 5874 5874 5873 5873 5872 5871 5869 5866 5866 5864 5863 5862 5860 5859 5859 5860 5861 5861 5864 5866 5868 5870 5873 5875 5877 5880 5883 5885 5887 5889 5891 5893 5893 5894 5896
5813 5814 5815 5816 5816 5817 5818 5819 5820 5821 5823 5825 5826 5828 5830 5831 5834 5836 5838 5840 5842 5844 5845 5847 5850 5852 5853 5855 5857 5858 5859 5860 5861 5862 5864 5865 5867 5868 5870 5871 5872 5873 5874 5875 5875 5875 5876 5876 5876 5876 5875 5875 5875 5875 5874 5874 5874 5873 5871 5870 5868 5867 5865 5864 5863 5861 5861 5860 5861 5862 5862 5864 5867 5870 5872 5874 5877 5878 5880 5883 5885 5887 5889 5891 5892 5894 5895 5897
5810 5810 5811 5812 5813 5814 5814 5815 5816 5818 5819 5821 5823 5824 5826 5828 5830 5832 5834 5836 5838 5840 5842 5844 5846 5848 5850 5853 5854 5855 5857 5858 5859 5860 5862 5863 5865 5867 5868 5870 5871 5872 5873 5874 5874 5875 5875 5875 5876 5875 5875 5875 5875 5875 5874 5875 5874 5873 5872 5871 5870 5869 5867 5866 5864 5863 5863 5863 5863 5863 5864 5865 5868 5871 5873 5875 5877 5879 5881 5883 5885 5887 5889 5891 5892 5894 5896 5897
5807 5807 5808 5809 5810 5811 5812 5812 5813 5814 5816 5818 5820 5821 5822 5824 5826 5829 5831 5832 5834 5836 5838 5840 5843 5845 5847 5849 5851 5853 5855 5856 5857 5859 5860 5862 5863 5865 5867 5868 5870 5871 5872 5873 5874 5874 5875 5875 5875 5874 5875 5875 5875 5875 5875 5875 5875 5874 5873 5872 5871 5870 5869 5868 5867 5866 5865 5865 5865 5865 5866 5868 5869 5872 5874 5876 5878 5879 5881 5883 5885 5887 5889 5891 5893 5895 5896 5897
5805 5805 5805 5806 5807 5808 5809 5809 5810 5811 5813 5815 5816 5818 5819 5821 5823 5825 5827 5829 5831 5832 5834 5836 5839 5840 5843 5846 5848 5850 5853 5854 5855 5857 5858 5860 5862 5864 5866 5868 5869 5871 5871 5872 5873 5874 5874 5874 5874 5874 5875 5875 5875 5875 5875 5875 5875 5874 5873 5873 5872 5872 5870 5869 5869 5868 5867 5867 5867 5868 5869 5870 5871 5873 5875 5877 5879 5880 5882 5884 5886 5887 5889 5891 5893 5895 5896 5897
5803 5802 5802 5803 5804 5805 5806 5806 5807 5809 5810 5812 5813 5814 5816 5818 5820 5821 5823 5825 5827 5828 5831 5833 5835 5837 5840 5843 5845 5848 5850 5852 5853 5854 5856 5858 5860 5862 5864 5867 5868 5870 5870 5871 5872 5873 5874 5873 5873 5874 5874 5874 5875 5875 5875 5875 5875 5874 5874 5874 5873 5873 5872 5871 5870 5869 5868 5868 5869 5869 5870 5872 5873 5874 5876 5878 5880 5881 5884 5885 5887 5888 5889 5891 5893 5894 5896 5897
5800 5800 5800 5800 5801 5802 5803 5804 5805 5806 5808 5809 5810 5811 5812 5814 5816 5818 5820 5821 5823 5825 5828 5830 5832 5834 5837 5839 5842 5844 5847 5849 5850 5852 5854 5856 5858 5860 5863 5866 5867 5868 5868 5869 5871 5872 5873 5872 5872 5873 5874 5874 5874 5875 5875 5875 5875 5875 5875 5875 5874 5874 5873 5872 5871 5870 5869 5869 5869 5870 5871 5873 5874 5875 5877 5879 5880 5881 5884 5885 5887 5888 5890 5891 5893 5894 5895 5897
5798 5798 5797 5797 5798 5799 5800 5801 5802 5804 5805 5806 5807 5808 5810 5812 5814 5815 5817 5818 5820 5823 5825 5827 5830 5832 5834 5836 5839 5841 5844 5846 5848 5849 5851 5854 5856 5859 5862 5864 5866 5866 5867 5868 5870 5871 5871 5871 5871 5873 5873 5874 5874 5875 5875 5875 5875 5875 5875 5875 5875 5875 5874 5873 5872 5871 5871 5870 5870 5870 5871 5873 5874 5875 5877 5879 5880 5882 5884 5885 5886 5888 5890 5892 5893 5894 5895 5897
5796 5795 5795 5795 5795 5796 5797 5798 5800 5801 5802 5803 5804 5805 5807 5809 5811 5812 5814 5816 5818 5820 5822 5825 5827 5829 5831 5833 5836 5838 5841 5843 5845 5847 5850 5852 5854 5857 5860 5862 5864 5865 5866 5867 5869 5869 5869 5869 5871 5872 5872 5873 5874 5874 5875 5874 5874 5876 5876 5876 5876 5875 5875 5874 5873 5873 5872 5872 5871 5870 5871 5872 5873 5875 5877 5879 5880 5882 5883 5885 5886 5888 5889 5891 5892 5894 5896 5898
5794 5793 5793 5793 5793 5793 5794 5796 5797 5799 5800 5800 5801 5803 5805 5806 5808 5810 5811 5813 5816 5818 5820 5822 5824 5826 5828 5831 5833 5836 5838 5840 5843 5845 5847 5849 5851 5855 5857 5859 5861 5863 5864 5866 5866 5866 5867 5868 5870 5871 5871 5872 5873 5873 5874 5874 5874 5875 5876 5876 5876 5875 5875 5875 5874 5874 5873 5873 5872 5872 5872 5872 5873 5875 5876 5878 5880 5882 5883 5885 5886 5888 5889 5891 5892 5894 5896 5898
5793 5792 5791 5791 5791 5791 5792 5793 5794 5796 5797 5798 5799 5801 5803 5804 5806 5808 5810 5812 5814 5816 5817 5819 5822 5823 5826 5828 5831 5833 5836 5838 5840 5842 5844 5846 5849 5852 5854 5856 5858 5860 5862 5863 5864 5864 5865 5867 5868 5869 5870 5871 5872 5872 5872 5872 5873 5874 5875 5875 5876 5876 5876 5875 5875 5874 5874 5874 5873 5874 5874 5874 5874 5875 5876 5877 5879 5881 5883 5885 5887 5888 5889 5891 5893 5895 5897 5898
5791 5791 5790 5789 5789 5790 5790 5791 5792 5793 5794 5795 5797 5799 5801 5802 5804 5806 5808 5810 5811 5813 5815 5817 5818 5820 5824 5826 5828 5831 5833 5835 5837 5839 5841 5843 5845 5848 5850 5853 5856 5858 5860 5861 5862 5863 5864 5866 5867 5868 5869 5870 5871 5871 5871 5871 5872 5874 5875 5875 5876 5876 5876 5876 5876 5875 5875 5875 5874 5875 5875 5875 5876 5876 5876 5877 5879 5881 5883 5885 5887 5888 5890 5892 5894 5896 5897 5898
5790 5789 5789 5788 5788 5788 5789 5789 5790 5791 5792 5793 5795 5797 5799 5801 5803 5805 5806 5807 5809 5811 5812 5814 5815 5818 5822 5825 5827 5828 5829 5832 5834 5836 5838 5840 5842 5845 5848 5850 5853 5856 5857 5859 5861 5862 5862 5864 5866 5866 5867 5868 5870 5870 5870 5870 5872 5873 5874 5875 5876 5876 5877 5877 5878 5877 5876 5876 5876 5876 5876 5876 5877 5877 5877 5878 5879 5881 5883 5884 5886 5888 5890 5892 5894 5896 5898 5899
5789 5788 5788 5787 5787 5787 5787 5787 5788 5789 5790 5791 5793 5795 5797 5799 5801 5802 5804 5805 5806 5808 5810 5811 5813 5816 5820 5822 5823 5824 5827 5830 5832 5833 5836 5838 5840 5843 5846 5848 5851 5853 5854 5856 5858 5859 5860 5861 5863 5864 5866 5867 5868 5868 5868 5870 5871 5872 5874 5875 5876 5876 5877 5878 5879 5878 5878 5877 5878 5878 5878 5878 5878 5878 5878 5879 5880 5880 5882 5884 5885 5887 5889 5891 5894 5896 5898 5899
5788 5787 5787 5786 5786 5786 5786 5786 5786 5787 5788 5790 5791 5793 5795 5797 5799 5800 5802 5802 5804 5805 5807 5809 5811 5814 5817 5819 5820 5822 5825 5827 5828 5830 5833 5835 5838 5841 5843 5846 5848 5849 5851 5854 5855 5855 5856 5857 5860 5862 5864 5865 5865 5866 5868 5869 5870 5872 5874 5875 5875 5877 5878 5879 5879 5879 5879 5879 5879 5879 5879 5879 5879 5880 5879 5879 5879 5880 5881 5882 5883 5886 5888 5890 5893 5895 5897 5899
5787 5786 5786 5786 5785 5785 5785 5785 5785 5785 5786 5788 5789 5791 5793 5795 5796 5798 5799 5800 5801 5803 5805 5807 5809 5812 5814 5816 5818 5820 5822 5824 5826 5829 5830 5833 5836 5839 5841 5844 5846 5847 5850 5852 5852 5852 5852 5855 5858 5860 5862 5863 5864 5866 5868 5869 5870 5872 5874 5874 5876 5877 5878 5879 5879 5880 5880 5879 5879 5880 5880 5879 5880 5880 5880 5880 5880 5880 5881 5881 5881 5884 5888 5890 5892 5894 5896 5899
5786 5786 5785 5785 5785 5784 5784 5784 5784 5784 5784 5785 5787 5789 5790 5792 5794 5795 5796 5797 5800 5802 5803 5805 5807 5810 5812 5814 5816 5818 5820 5822 5825 5827 5828 5831 5833 5835 5838 5841 5842 5845 5847 5850 5852 5852 5852 5855 5857 5859 5861 5862 5864 5866 5867 5869 5871 5872 5873 5875 5876 5877 5878 5879 5879 5880 5880 5880 5880 5880 5881 5880 5880 5881 5881 5881 5881 5882 5882 5883 5883 5886 5888 5890 5892 5894 5896 5899
5786 5785 5784 5784 5784 5784 5783 5783 5783 5783 5783 5784 5785 5786 5788 5790 5791 5792 5794 5796 5798 5799 5801 5803 5806 5808 5811 5812 5814 5816 5819 5821 5823 5825 5827 5829 5831 5834 5837 5838 5840 5843 5846 5850 5851 5851 5852 5855 5857 5858 5860 5861 5864 5866 5867 5869 5871 5872 5873 5875 5876 5877 5878 5878 5878 5879 5880 5881 5881 5881 5881 5881 5881 5882 5882 5882 5882 5883 5884 5885 5886 5887 5889 5891 5894 5895 5897 5900
5785 5784 5783 5783 5783 5783 5783 5783 5783 5783 5782 5783 5783 5784 5786 5787 5789 5790 5792 5794 5796 5798 5800 5803 5805 5807 5809 5811 5813 5814 5816 5818 5821 5823 5825 5827 5830 5833 5835 5837 5839 5842 5845 5848 5849 5849 5851 5854 5856 5857 5859 5861 5863 5865 5867 5869 5870 5871 5872 5873 5875 5876 5876 5878 5879 5880 5881 5881 5881 5882 5882 5882 5882 5883 5883 5883 5884 5884 5885 5887 5888 5889 5891 5893 5894 5896 5898 5900
5784 5783 5783 5782 5782 5782 5782 5782 5782 5782 5782 5782 5782 5783 5784 5786 5788 5790 5791 5793 5795 5798 5800 5802 5804 5806 5808 5809 5811 5813 5814 5816 5819 5821 5823 5825 5828 5830 5832 5834 5837 5840 5842 5844 5846 5848 5850 5853 5855 5856 5857 5859 5862 5864 5866 5867 5868 5869 5870 5872 5874 5874 5874 5876 5879 5879 5880 5880 5881 5882 5882 5883 5884 5885 5885 5885 5886 5886 5887 5889 5891 5892 5893 5894 5895 5897 5899 5900
5783 5782 5782 5782 5782 5782 5782 5782 5782 5782 5782 5782 5782 5782 5784 5785 5787 5789 5790 5792 5795 5797 5798 5800 5802 5804 5806 5808 5810 5811 5813 5816 5818 5819 5821 5823 5826 5828 5830 5832 5835 5837 5839 5842 5844 5846 5848 5851 5853 5854 5856 5858 5861 5863 5864 5865 5867 5868 5869 5872 5873 5873 5873 5874 5875 5877 5878 5880 5881 5882 5883 5884 5885 5886 5886 5887 5888 5889 5890 5891 5892 5894 5895 5897 5898 5899 5900 5901
5782 5782 5781 5781 5781 5781 5781 5781 5781 5781 5781 5781 5781 5782 5783 5785 5786 5788 5790 5792 5794 5796 5797 5799 5801 5803 5805 5807 5808 5810 5812 5814 5816 5818 5819 5822 5824 5827 5829 5831 5834 5835 5838 5841 5843 5845 5848 5850 5852 5853 5855 5857 5859 5860 5861 5864 5865 5866 5868 5870 5870 5871 5873 5873 5874 5877 5878 5880 5880 5882 5884 5885 5886 5886 5887 5888 5889 5890 5891 5892 5893 5895 5896 5897 5899 5900 5901 5901
5782 5781 5780 5780 5780 5780 5780 5781 5781 5781 5781 5780 5781 5782 5783 5785 5786 5788 5789 5791 5793 5795 5797 5798 5800 5802 5804 5806 5807 5809 5811 5813 5815 5817 5818 5821 5823 5825 5828 5829 5831 5834 5836 5839 5842 5844 5847 5848 5850 5852 5854 5855 5856 5857 5859 5862 5863 5864 5866 5867 5869 5871 5873 5874 5875 5876 5878 5880 5881 5882 5883 5885 5886 5887 5887 5888 5889 5889 5891 5892 5893 5895 5896 5897 5898 5899 5901 5901
5781 5780 5780 5779 5779 5779 5780 5780 5780 5780 5780 5780 5781 5783 5784 5785 5786 5787 5789 5791 5792 5794 5796 5798 5799 5801 5803 5805 5807 5809 5811 5813 5815 5816 5818 5820 5822 5824 5826 5828 5830 5833 5835 5838 5839 5841 5843 5845 5847 5850 5851 5852 5854 5856 5858 5860 5861 5864 5864 5865 5868 5870 5871 5873 5875 5875 5876 5879 5881 5882 5884 5885 5886 5887 5888 5888 5888 5888 5889 5891 5893 5894 5895 5896 5898 5899 5900 5901
5780 5779 5779 5779 5779 5779 5779 5779 5779 5780 5779 5780 5782 5783 5784 5784 5785 5787 5788 5790 5792 5794 5795 5797 5799 5801 5803 5805 5806 5808 5810 5812 5814 5816 5818 5819 5821 5823 5825 5827 5829 5832 5834 5835 5837 5839 5841 5844 5846 5848 5849 5850 5852 5854 5856 5858 5860 5862 5863 5864 5867 5868 5870 5871 5873 5874 5875 5876 5880 5882 5884 5885 5885 5885 5886 5887 5888 5888 5888 5890 5892 5893 5894 5896 5898 5899 5900 5900
5780 5779 5778 5778 5778 5778 5778 5779 5779 5779 5779 5780 5781 5782 5783 5784 5785 5786 5788 5789 5791 5793 5795 5796 5798 5800 5802 5804 5806 5808 5810 5812 5813 5815 5817 5818 5820 5822 5823 5825 5827 5830 5831 5833 5836 5838 5840 5842 5844 5845 5845 5848 5851 5853 5855 5858 5859 5861 5862 5864 5866 5867 5869 5871 5872 5874 5874 5875 5877 5880 5883 5884 5883 5883 5885 5886 5888 5887 5886 5887 5890 5892 5893 5895 5897 5898 5899 5900
5779 5778 5778 5777 5777 5777 5777 5778 5778 5778 5778 5779 5781 5781 5782 5783 5785 5786 5787 5789 5791 5792 5794 5796 5797 5799 5801 5803 5805 5807 5809 5811 5813 5814 5816 5817 5819 5821 5822 5824 5826 5827 5828 5830 5833 5834 5836 5839 5842 5843 5845 5849 5850 5851 5853 5854 5856 5858 5860 5862 5864 5866 5867 5869 5871 5873 5874 5875 5876 5877 5880 5882 5881 5882 5885 5886 5887 5887 5887 5887 5887 5888 5891 5893 5895 5897 5898 5899
5778 5778 5777 5777 5776 5776 5776 5777 5777 5777 5777 5778 5780 5781 5782 5783 5785 5786 5787 5788 5790 5792 5793 5795 5797 5799 5800 5802 5804 5806 5808 5810 5812 5813 5815 5817 5818 5819 5819 5821 5823 5824 5826 5828 5831 5833 5835 5838 5840 5841 5844 5846 5847 5847 5850 5851 5853 5855 5857 5859 5861 5863 5865 5868 5870 5871 5872 5874 5876 5877 5879 5879 5880 5882 5883 5885 5886 5887 5887 5887 5885 5885 5889 5892 5894 5895 5897 5898
5777 5777 5776 5776 5776 5776 5776 5776 5776 5777 5777 5778 5779 5780 5781 5782 5784 5785 5786 5787 5789 5791 5792 5794 5796 5798 5800 5802 5804 5806 5808 5809 5811 5812 5814 5815 5816 5816 5817 5819 5820 5822 5823 5826 5828 5830 5832 5835 5837 5839 5841 5843 5844 5846 5849 5850 5852 5854 5856 5858 5859 5861 5864 5866 5868 5869 5870 5872 5875 5878 5879 5878 5878 5881 5883 5884 5885 5886 5887 5887 5885 5885 5888 5891 5893 5894 5896 5897
5775 5775 5775 5775 5775 5775 5775 5775 5775 5775 5776 5777 5778 5779 5780 5782 5783 5784 5785 5786 5788 5790 5791 5793 5795 5797 5799 5801 5803 5805 5807 5809 5810 5812 5813 5814 5814 5815 5816 5818 5819 5821 5823 5825 5826 5828 5830 5832 5834 5837 5840 5842 5844 5845 5847 5849 5850 5853 5856 5857 5859 5861 5863 5865 5866 5867 5868 5870 5872 5875 5878 5877 5877 5879 5882 5883 5884 5885 5886 5886 5887 5888 5889 5891 5892 5894 5895 5896
5774 5774 5774 5774 5774 5774 5774 5774 5774 5774 5775 5776 5777 5778 5779 5780 5782 5783 5784 5785 5787 5789 5790 5792 5794 5796 5799 5801 5803 5805 5807 5808 5809 5811 5812 5813 5814 5814 5816 5817 5819 5820 5823 5824 5826 5827 5829 5831 5833 5836 5838 5841 5843 5844 5845 5848 5850 5852 5855 5856 5858 5860 5862 5863 5864 5864 5866 5869 5870 5871 5873 5875 5876 5877 5880 5882 5883 5884 5885 5886 5887 5888 5889 5890 5892 5893 5894 5895
5772 5772 5772 5772 5772 5773 5773 5773 5773 5773 5774 5774 5775 5776 5777 5779 5780 5781 5782 5784 5786 5787 5789 5791 5793 5795 5798 5800 5802 5804 5806 5807 5809 5810 5811 5812 5813 5814 5815 5816 5818 5819 5821 5823 5824 5825 5827 5829 5832 5834 5836 5839 5842 5843 5844 5847 5849 5851 5853 5855 5856 5857 5860 5860 5861 5862 5864 5866 5867 5870 5871 5872 5875 5877 5879 5881 5882 5883 5885 5886 5887 5888 5889 5890 5891 5892 5893 5894
5770 5770 5771 5771 5771 5771 5772 5772 5772 5772 5772 5773 5773 5774 5775 5777 5778 5779 5781 5783 5784 5786 5788 5790 5792 5794 5796 5798 5801 5803 5804 5806 5808 5809 5810 5810 5811 5813 5814 5816 5817 5818 5820 5821 5822 5823 5826 5828 5831 5833 5834 5837 5839 5840 5841 5844 5847 5849 5851 5852 5853 5855 5857 5857 5858 5861 5862 5862 5863 5867 5870 5872 5874 5876 5878 5880 5881 5882 5884 5885 5886 5888 5888 5889 5890 5891 5892 5893
5768 5768 5768 5769 5769 5769 5770 5770 5770 5770 5771 5771 5772 5772 5773 5774 5775 5777 5779 5781 5782 5784 5786 5788 5790 5792 5794 5797 5799 5801 5803 5804 5806 5807 5808 5809 5810 5812 5813 5815 5816 5818 5819 5820 5821 5822 5825 5827 5829 5831 5833 5835 5836 5838 5840 5842 5844 5846 5848 5849 5851 5852 5854 5855 5857 5859 5860 5861 5862 5865 5868 5870 5872 5874 5877 5878 5880 5882 5882 5883 5885 5886 5888 5889 5890 5891 5891 5892
5766 5766 5766 5766 5767 5767 5768 5768 5769 5769 5769 5770 5770 5770 5771 5772 5773 5775 5777 5779 5780 5782 5784 5786 5788 5790 5792 5795 5797 5799 5800 5802 5803 5805 5807 5808 5810 5811 5812 5813 5815 5816 5818 5819 5820 5822 5824 5826 5828 5830 5832 5834 5836 5837 5838 5840 5842 5844 5846 5848 5849 5851 5852 5854 5856 5858 5859 5861 5863 5864 5865 5867 5869 5872 5875 5877 5878 5880 5881 5882 5883 5884 5886 5887 5888 5889 5890 5891
5764 5763 5764 5764 5764 5765 5765 5766 5766 5767 5767 5768 5768 5768 5769 5770 5771 5772 5774 5776 5778 5779 5781 5784 5786 5788 5790 5792 5794 5796 5798 5800 5802 5804 5806 5807 5808 5809 5810 5812 5813 5815 5817 5818 5819 5821 5823 5825 5827 5829 5831 5833 5834 5835 5836 5838 5840 5842 5844 5846 5847 5849 5851 5852 5855 5857 5858 5859 5861 5863 5864 5865 5868 5871 5874 5875 5876 5878 5879 5880 5882 5883 5884 5885 5887 5888 5889 5890
5761 5761 5761 5761 5762 5762 5763 5763 5764 5764 5765 5765 5766 5766 5767 5768 5768 5770 5772 5773 5775 5777 5779 5782 5784 5786 5788 5790 5792 5794 5796 5798 5800 5802 5804 5805 5807 5807 5809 5811 5812 5814 5816 5817 5819 5820 5821 5824 5826 5827 5829 5832 5833 5834 5836 5837 5839 5840 5842 5844 5846 5848 5850 5851 5853 5855 5857 5858 5859 5860 5862 5865 5867 5870 5872 5873 5874 5875 5876 5878 5880 5882 5882 5884 5885 5887 5888 5889
5759 5759 5759 5759 5759 5759 5760 5761 5761 5762 5762 5763 5763 5764 5765 5765 5766 5767 5769 5771 5772 5774 5776 5779 5781 5783 5785 5787 5789 5792 5794 5796 5799 5801 5802 5804 5805 5806 5807 5809 5811 5813 5814 5816 5818 5819 5820 5823 5824 5825 5827 5830 5831 5833 5835 5836 5837 5838 5839 5842 5845 5847 5848 5850 5852 5853 5855 5857 5857 5857 5859 5862 5863 5867 5869 5870 5871 5872 5873 5876 5879 5881 5881 5882 5883 5884 5886 5887